Regional Weather Roundup
Issued by NWS Newport/Morehead, NC

Current Version | Previous Version | Graphics & Text | Print | Product List | Glossary Off
Versions: 1 2 3 4 5 6 7 8 9 10 11 12 13 14 15 16 17 18 19 20 21 22 23 24 25 26 27 28 29 30 31 32 33 34 35 36 37 38 39 40 41 42 43 44 45 46 47 48 49 50

000
ASUS42 KMHX 030325
RWRMHX
WEATHER ROUNDUP FOR EASTERN NORTH CAROLINA
NATIONAL WEATHER SERVICE NEWPORT/MOREHEAD CITY NC
1100 PM EDT MON MAY 02 2016

NOTE: "FAIR" INDICATES FEW OR NO CLOUDS BELOW 12,000 FEET
WITH NO SIGNIFICANT WEATHER AND/OR OBSTRUCTIONS TO VISIBILITY

NCZ015>017-031-032-045>047-102-103-030400-
NORTH COAST

CITY           SKY/WX    TMP DP  RH WIND       PRES   REMARKS
EDENTON        LGT RAIN  71  71  98 SW9G17    29.94F
ELIZABETH CITY CLOUDY    70  66  87 S12       29.93F
KITTY HAWK     CLOUDY    72  68  88 SW9       29.93F
MANTEO         NOT AVBL

$$

NCZ045>047-081-094-103-104-030400-
CENTRAL COAST

CITY           SKY/WX    TMP DP  RH WIND       PRES   REMARKS
FRISCO         CLOUDY    71  69  93 SW9       29.99R
SWANQUARTER    NOT AVBL

$$

NCZ095-097-098-100-101-030400-
SOUTHERN COAST

CITY           SKY/WX    TMP DP  RH WIND       PRES   REMARKS
BEAUFORT       CLOUDY    71  69  93 SW13      30.00S
CEDAR ISLAND   NOT AVBL
JACKSONVILLE   CLOUDY    71  68  90 W6        29.99S
PINEY ISLAND   NOT AVBL
WILMINGTON     MOCLDY    74  68  81 S9        30.00S


$$

NCZ011>013-027>030-043-044-078>080-089-090>093-098-030400-
COASTAL PLAIN

CITY           SKY/WX    TMP DP  RH WIND       PRES   REMARKS
AHOSKIE        LGT RAIN  68  64  89 S3        29.90F
CLINTON        LGT RAIN  65  65 100 CALM      29.96F
ELIZABETHTOWN  CLOUDY    67  67 100 SE3       29.98F
GOLDSBORO      NOT AVBL
GREENVILLE     CLOUDY    68  64  88 SW8       29.96F
HAVELOCK       CLOUDY    73  68  84 SW9       30.00S
KENANSVILLE    LGT RAIN  65  64  97 CALM      29.98F
KINSTON        LGT RAIN  66  65  94 S9        29.96F
NEW BERN       CLOUDY    71  67  87 SW6       30.00S
RICHLANDS      CLOUDY    70  68  94 SW3       29.99F
ROCKY MOUNT    CLOUDY    67  64  90 S12       29.92R
WASHINGTON     CLOUDY    68  65  89 S6        29.95F
WHITEVILLE     DRIZZLE   73  69  89 S3        29.99F

$$

AMZ130-135-150-152-154-156-158-170-250-252-270-ANZ085-086-088-633-658-670-030400-
MARINE OBSERVATIONS

STATION/POSITION TIME  TEMP    WIND        PRES    WAVE   SWELL
                       AIR SEA DIR/SP/G            HT/PER HT/PER
                 (UTC) (F)     (DEG/KT/KT) (MB)    (FT/S) (FT/S)
CHESAPEAKE LIGHT 0300   65     170/ 14/ 16 1013.7
64 E VA BEACH    0250   61 54  210/ 14/ 16 1013.5    4/10   3/10
DUCK             0200   71 65              1013.1
2 E DUCK         0211      59                N/A     3/10   2/11
OREGON INLET     0200   72 73              1014.3
13E OREGON INLT  0300      61                N/A     4/11   2/11
HATTERAS CG      0200   71 70              1015.2
DIAMOND BUOY     0250   75 74  220/ 16/ 17 1015.5    4/11   2/11
CAPE LOOKOUT     0300   71     210/ 11/ 14 1015.5
BEAUFORT LAB     0200   71 68              1015.0
30 SE NEW RVR IN 0225      70                N/A     4/11   2/11
27 SE WRIGHTSVLE 0308   73 71  200/  8/ 12 1015.5
5 SE WRIGHTSVLE  0208   72 70  210/ 12/ 14 1016.6
225 S CAPE HAT   0250   74 74  160/ 16/ 17 1019.4    4/11   3/11
41 SE CHARLESTON 0250   76 75  180/ 10/ 14 1015.7    3/ 8   2/ 8

$$




USA.gov is the U.S. government's official web portal to all federal, state and local government web resources and services.